TimeCST,TemperatureF,Dew PointF,Humidity,Sea Level PressureIn,VisibilityMPH,Wind Direction,Wind SpeedMPH,Gust SpeedMPH,PrecipitationIn,Events,Conditions,WindDirDegrees,DateUTC
12:52 AM,36.0,30.9,82,30.22,4.0,North,12.7,18.4,N/A,,Haze,10,2013-02-08 06:52:00
1:52 AM,34.0,30.0,85,30.24,4.0,North,12.7,-,N/A,,Overcast,360,2013-02-08 07:52:00
2:52 AM,34.0,28.9,82,30.25,4.0,NNE,5.8,-,N/A,,Haze,30,2013-02-08 08:52:00
3:52 AM,33.1,28.0,82,30.27,5.0,NNE,4.6,-,N/A,,Haze,20,2013-02-08 09:52:00
4:52 AM,32.0,27.0,82,30.29,6.0,North,8.1,-,N/A,,Haze,360,2013-02-08 10:52:00
5:21 AM,32.0,26.6,80,30.29,6.0,NNE,4.6,-,N/A,,Haze,20,2013-02-08 11:21:00
5:52 AM,32.0,27.0,82,30.30,6.0,NE,5.8,-,N/A,,Haze,40,2013-02-08 11:52:00
6:52 AM,30.9,27.0,85,30.31,6.0,NNE,8.1,-,N/A,,Overcast,30,2013-02-08 12:52:00
7:52 AM,30.9,27.0,85,30.33,5.0,NNE,5.8,-,N/A,,Overcast,20,2013-02-08 13:52:00
8:52 AM,30.9,27.0,85,30.36,6.0,NNE,5.8,-,N/A,,Overcast,30,2013-02-08 14:52:00
9:52 AM,33.1,28.9,85,30.35,6.0,Variable,3.5,-,N/A,,Overcast,0,2013-02-08 15:52:00
10:15 AM,33.8,28.4,81,30.34,5.0,Variable,5.8,-,N/A,,Haze,0,2013-02-08 16:15:00
10:52 AM,36.0,28.9,76,30.36,5.0,Variable,5.8,-,N/A,,Haze,0,2013-02-08 16:52:00
11:52 AM,37.9,30.0,73,30.36,5.0,NNE,4.6,-,N/A,,Haze,20,2013-02-08 17:52:00
12:10 PM,39.2,30.2,70,30.35,5.0,NE,5.8,-,N/A,,Haze,40,2013-02-08 18:10:00
12:34 PM,39.2,30.2,70,30.35,6.0,Variable,3.5,-,N/A,,Haze,0,2013-02-08 18:34:00
12:52 PM,41.0,32.0,70,30.35,6.0,Variable,4.6,-,N/A,,Haze,0,2013-02-08 18:52:00
1:52 PM,44.1,32.0,63,30.31,7.0,ENE,4.6,-,N/A,,Clear,70,2013-02-08 19:52:00
2:52 PM,46.0,33.1,61,30.26,9.0,Variable,4.6,-,N/A,,Clear,0,2013-02-08 20:52:00
3:52 PM,46.0,32.0,58,30.27,10.0,Variable,4.6,-,N/A,,Clear,0,2013-02-08 21:52:00
4:52 PM,46.0,33.1,61,30.26,10.0,ESE,3.5,-,N/A,,Clear,110,2013-02-08 22:52:00
5:52 PM,42.1,33.1,70,30.25,10.0,Calm,Calm,-,N/A,,Clear,0,2013-02-08 23:52:00
6:52 PM,35.1,30.9,85,30.26,10.0,Calm,Calm,-,N/A,,Clear,0,2013-02-09 00:52:00
7:52 PM,32.0,28.9,88,30.25,8.0,Calm,Calm,-,N/A,,Clear,0,2013-02-09 01:52:00
8:52 PM,36.0,30.9,82,30.23,10.0,Calm,Calm,-,N/A,,Clear,0,2013-02-09 02:52:00
9:52 PM,36.0,30.9,82,30.23,10.0,East,4.6,-,N/A,,Clear,80,2013-02-09 03:52:00
10:52 PM,35.1,30.9,85,30.22,9.0,Variable,3.5,-,N/A,,Clear,0,2013-02-09 04:52:00
11:52 PM,35.1,30.9,85,30.19,9.0,East,3.5,-,N/A,,Clear,80,2013-02-09 05:52:00